Regional Weather Roundup
Issued by NWS

Home | Current Version | Previous Version | Graphics & Text | Print | Product List | Glossary On
Versions: 1 2 3 4 5 6 7 8 9 10 11 12 13 14 15 16 17 18 19 20 21 22 23 24 25 26 27 28 29 30 31 32 33 34 35 36 37 38 39 40 41 42 43 44 45 46 47 48
000
ASUS45 KSLC 192310
RWRUT

UTAH REGIONAL WEATHER ROUNDUP
NATIONAL WEATHER SERVICE SALT LAKE CITY UT
500 PM MDT FRI SEP 19 2014

UTZ001>011-023>025-200000-

NORTHERN UTAH

CITY           SKY/WX    TMP DP  RH WIND       PRES   REMARKS
HILL AFB       SUNNY     81  43  25 NW9       30.06S
LOGAN          SUNNY     80  49  33 VRB5      30.04F
OGDEN          SUNNY     82  41  23 NW12      30.03S
PROVO AIRPORT  MOSUNNY   81  55  41 NW14      30.02F
SALT LAKE CITY MOSUNNY   82  53  36 NW8       30.01S
VERNAL         CLOUDY    79  47  32 CALM      30.04S
WENDOVER       SUNNY     82  41  23 E9        30.03S
HEBER CITY     MOSUNNY   82  46  28 W6        30.07S
WEST JORDAN    SUNNY     79  50  36 NW12      30.05S

$$

UTZ012>022-026-027-200000-

SOUTHERN UTAH

CITY           SKY/WX    TMP DP  RH WIND       PRES   REMARKS
BRYCE CANYON   PTSUNNY   72  43  35 W5        30.21S
CEDAR CITY     SUNNY     83  41  22 VRB5      30.05F
MILFORD        SUNNY     85  43  22 VRB5      30.01S
MOAB/CYNLANDS  SUNNY     90  39  16 NW9       29.92F
PRICE          MOSUNNY   82  41  23 CALM      30.07S
ST GEORGE      PTCLDY    93  52  24 NW8       29.87S HX  90
KANAB            N/A     84  46  26 S3        30.02

$$

REGIONAL REPORTS     COLORADO/ARIZONA

CITY           SKY/WX    TMP DP  RH WIND       PRES   REMARKS
CRAIG, CO      SUNNY     81  38  21 W9        30.08S
GRAND JUNCTION SUNNY     88  38  17 W9        29.96F
RIFLE          MOSUNNY   86  39  19 W10       30.00F
MONTROSE       SUNNY     85  43  22 N6        30.04F
CORTEZ         SUNNY     85  43  22 N12       30.04F
PAGE, AZ       MOSUNNY   92  46  20 N6        29.94F
GRAND CANYON   PTSUNNY   69  61  75 CALM      30.15F
KINGMAN        SUNNY     89  42  19 SW16      29.93S
FLAGSTAFF      PTSUNNY   70  58  65 VRB5      30.18F

$$

REGIONAL REPORTS    NEVADA/IDAHO/WYOMING

CITY           SKY/WX    TMP DP  RH WIND       PRES   REMARKS
LAS VEGAS, NV  MOSUNNY   96  35  11 S14G20    29.77F HX  91
ELY            SUNNY     81  32  17 S8        30.10F
ELKO           SUNNY     84  37  18 NE9       30.05F
POCATELLO, ID  SUNNY     79  39  23 SW17      30.06F
BURLEY         SUNNY     76  46  34 W10G17    30.05F
EVANSTON, WY   SUNNY     75  42  30 NW10G23   30.18F
ROCK SPRINGS   SUNNY     76  35  22 W17G23    30.14F

$$


USA.gov is the U.S. government's official web portal to all federal, state and local government web resources and services.